User: anonymous   Login
Location: Mohawk View
(42.7837°N, 73.7885°W)
Time: 04:49:07
(UTC+00:00)
Language:

SL-19 R/B - Orbit

View from above orbital plane
View from above orbital plane
View from above satellite
View from above satellite

Ground track
Ground track

The orbit data is extracted from the following two-line orbital elements,

1 28061U 03050B   21263.29735686 -.00000198  00000-0 -97867-4 0  9996
2 28061  99.4463 207.2361 0145897 199.3442 160.2146 13.97455179912532
Epoch (UTC): 20 September 2021 07:08:11
Eccentricity: 0.0145897
inclination: 99.4463°
perigee height: 796 km
apogee height: 1009 km
right ascension of ascending node: 207.2361°
argument of perigee: 199.3442°
revolutions per day: 13.97455179
mean anomaly at epoch: 160.2146°
orbit number at epoch: 91253

The dashed part of the orbit path shows where the satellite is in the earth's shadow,  

DLR